Location: Blanot
(47.1713°N, 4.2340°E)
Time: 04:35:54
(UTC+00:00)

Abrixas rocket - Pass Details

Date: 14 July 2020
Orbit: 339 x 347 km, 48.4° (Epoch: 06 August)

Event Time Altitude Azimuth Distance (km) Brightness Sun altitude
Rises 03:06:32 0° 284° (WNW) 2,125 5.5 -8.1°
Reaches altitude 10° 03:08:38 10° 274° (W) 1,283 4.3 -7.9°
Maximum altitude 03:11:15 32° 208° (SSW) 611 2.6 -7.5°
Drops below altitude 10° 03:13:51 10° 142° (SE) 1,277 4.7 -7.2°
Sets 03:15:57 0° 132° (SE) 2,113 5.9 -7.0°
